KZ1X Weather Reports


Display with metric or nautical units.
time (UTC)temp
F
wind
direction
speed
MPH
gust
MPH
rain 1hr
in
rain 24hr
in
rain mn
in
humidity
%
barometer
mb
20260502163054 57 143 0.0 4.0 0.00 0.00 0.00 79 1013.4
20260502161543 55 151 0.0 2.0 0.00 0.00 0.00 80 1013.9
20260502151539 55 96 0.0 4.0 0.00 0.00 0.00 82 1013.5
20260502123037 51 0 0.0 1.0 0.00 0.00 0.00 91 1013.3
20260502121539 51 229 0.0 1.0 0.00 0.00 0.00 92 1013.1
20260502114547 50 0 0.0 0.0 0.00 0.00 0.00 93 1013.2
20260502113037 50 0 0.0 0.0 0.00 0.00 0.00 93 1013.1
20260502111540 51 0 0.0 0.0 0.00 0.00 0.00 93 1012.7
20260502110041 51 0 0.0 0.0 0.00 0.00 0.00 92 1013.1
20260502104536 51 0 0.0 0.0 0.00 0.00 0.00 92 1013.1
20260502103033 51 0 0.0 0.0 0.00 0.00 0.00 93 1013.2
20260502101538 51 119 0.0 1.0 0.00 0.00 0.00 94 1013.3
20260502070050 50 0 0.0 0.0 0.00 0.00 0.00 95 1012.2
20260502064547 50 0 0.0 0.0 0.00 0.00 0.00 95 1012.1
20260502063040 50 0 0.0 0.0 0.00 0.00 0.00 94 1012.2
20260502061534 50 0 0.0 0.0 0.00 0.00 0.00 94 1012.2
20260502060044 50 0 0.0 0.0 0.00 0.00 0.00 95 1012.4
20260502054539 50 0 0.0 0.0 0.00 0.00 0.00 94 1012.4
20260502053042 50 0 0.0 0.0 0.00 0.00 0.00 94 1012.6
20260502051539 50 0 0.0 0.0 0.00 0.00 0.00 94 1012.8
20260502050037 50 0 0.0 0.0 0.00 0.00 0.00 94 1012.9
20260502044537 50 0 0.0 0.0 0.00 0.00 0.00 94 1013.0
20260502043050 50 0 0.0 0.0 0.00 0.00 0.00 94 1013.1
20260502041547 50 0 0.0 0.0 0.00 0.00 0.00 93 1013.1
20260502040041 50 0 0.0 0.0 0.00 0.00 0.00 93 1013.2
20260502034540 50 0 0.0 0.0 0.00 0.00 0.00 93 1013.4
20260502033041 50 0 0.0 0.0 0.00 0.00 0.00 93 1013.3
20260502031537 50 0 0.0 0.0 0.00 0.00 0.00 92 1013.3
20260502030038 50 0 0.0 0.0 0.00 0.00 0.00 91 1013.4
20260502024540 50 0 0.0 0.0 0.00 0.00 0.00 91 1013.6
20260502023035 51 0 0.0 0.0 0.00 0.00 0.00 91 1013.5
20260502021535 51 0 0.0 0.0 0.00 0.00 0.00 90 1013.5
20260502020044 52 0 0.0 0.0 0.00 0.00 0.00 89 1013.5
20260502014552 52 0 0.0 0.0 0.00 0.00 0.00 88 1013.6
20260502013037 52 0 0.0 0.0 0.00 0.00 0.00 88 1013.5
20260502011545 52 0 0.0 0.0 0.00 0.00 0.00 88 1013.3
20260502010036 52 0 0.0 0.0 0.00 0.00 0.00 87 1013.3
20260502004545 52 0 0.0 0.0 0.00 0.00 0.00 86 1013.2
20260502003042 53 0 0.0 0.0 0.00 0.00 0.00 84 1012.8
20260502001540 54 0 0.0 0.0 0.00 0.00 0.00 83 1012.5
20260502000047 54 0 0.0 0.0 0.00 0.00 0.00 81 1012.6
20260501234536 55 0 0.0 0.0 0.00 0.00 0.00 79 1012.8
20260501233036 55 0 0.0 0.0 0.00 0.00 0.00 78 1012.7
20260501231549 56 0 0.0 0.0 0.00 0.00 0.00 77 1012.8
20260501230043 56 0 0.0 0.0 0.00 0.00 0.00 78 1012.5
20260501224537 56 0 0.0 0.0 0.00 0.00 0.00 77 1012.6
20260501223039 57 0 0.0 0.0 0.00 0.00 0.00 76 1012.8
20260501221538 58 0 0.0 2.0 0.00 0.00 0.00 74 1013.0
20260501220035 58 0 0.0 1.0 0.00 0.00 0.00 73 1013.1
20260501214543 58 255 0.0 2.0 0.00 0.00 0.00 72 1013.3
20260501213041 59 243 0.0 2.0 0.00 0.00 0.00 71 1013.2
20260501211538 59 0 0.0 2.0 0.00 0.00 0.00 70 1013.2
20260501210037 59 259 1.0 2.0 0.00 0.00 0.00 69 1013.4
20260501204538 61 250 1.0 2.0 0.00 0.00 0.00 67 1013.3
20260501203034 62 239 1.0 3.0 0.00 0.00 0.00 67 1013.5
20260501201553 63 0 0.0 2.0 0.00 0.00 0.00 66 1013.6
20260501200041 63 0 0.0 1.0 0.00 0.00 0.00 60 1013.7
20260501194545 64 0 0.0 1.0 0.00 0.00 0.00 60 1013.9
20260501193040 64 0 0.0 2.0 0.00 0.00 0.00 58 1014.0
20260501191546 65 0 0.0 1.0 0.00 0.00 0.00 55 1014.2
20260501190042 64 210 0.0 1.0 0.00 0.00 0.00 56 1014.4
20260501184542 65 264 0.0 2.0 0.00 0.00 0.00 55 1014.5
20260501183047 65 107 0.0 2.0 0.00 0.00 0.00 57 1014.7
20260501181542 65 100 0.0 2.0 0.00 0.00 0.00 53 1015.0
20260501180045 64 272 0.0 1.0 0.00 0.00 0.00 52 1015.1
20260501174545 64 247 1.0 2.0 0.00 0.00 0.00 52 1015.3
20260501173036 64 0 1.0 3.0 0.00 0.00 0.00 50 1015.2
20260501171545 65 314 0.0 2.0 0.00 0.00 0.00 55 1015.2